This demonstration page uses our WeatherBlox Daily Observations layout. Learn more.

Left ArrowRight Arrow

Hourly Observations for July 2, 2019

Temp ( °F °C ) Dew Point ( °F °C ) Humidity (%) Winds ( mph kmh ) Pressure ( in mb ) Visibility ( mi km ) Precip ( " mm )
12:53 am 00:53 Clear 54 12.2 48 8.9 80 80 NNW 8 13 29.96 1015 10 16 0.00 0.00
1:53 am 01:53 Clear 53 11.7 47 8.3 80 80 N 10 17 29.97 1015 10 16 0.00 0.00
2:53 am 02:53 Clear 51 10.6 44 6.7 77 77 N 13 20 29.99 1016 10 16 0.00 0.00
3:16 am 03:16 Mostly Cloudy 51 10.6 44 6.7 77 77 N 15 24 30.02 1017 10 16 0.00 0.00
3:53 am 03:53 Cloudy 50 10 43 6.1 77 77 NNW 8 13 30.01 1016 10 16 0.00 0.00
4:53 am 04:53 Cloudy 48 8.9 43 6.1 83 83 N 7 11 30.04 1017 10 16 0.00 0.00
5:53 am 05:53 Cloudy 48 8.9 43 6.1 83 83 Calm 30.04 1017 10 16 0.00 0.00
6:53 am 06:53 Cloudy 48 8.9 43 6.1 83 83 Calm 30.05 1018 10 16 0.00 0.00
7:35 am 07:35 Partly Cloudy 49 9.4 42 5.6 77 77 Calm 30.08 1019 10 16 0.00 0.00
7:53 am 07:53 Partly Cloudy 49 9.4 42 5.6 77 77 NW 3 6 30.05 1018 10 16 0.00 0.00
8:53 am 08:53 Mostly Sunny 50 10 42 5.6 74 74 NNW 3 6 30.06 1018 10 16 0.00 0.00
9:53 am 09:53 Mostly Cloudy 52 11.1 44 6.7 75 75 Calm 30.05 1018 10 16 0.00 0.03
10:53 am 10:53 Partly Cloudy with Light Rain 54 12.2 44 6.7 69 69 VRB 5 7 30.06 1018 10 16 0.00 0.03
11:53 am 11:53 Mostly Cloudy 57 13.9 43 6.1 60 60 Calm 30.03 1017 10 16 0.00 0.03
12:53 pm 12:53 Mostly Cloudy 54 12.2 43 6.1 67 67 NW 10 17 30.05 1018 10 16 0.00 0.03
1:53 pm 13:53 Cloudy 55 12.8 41 5 59 59 NW 8 13 30.05 1018 10 16 0.00 0.00
2:53 pm 14:53 Cloudy with Light Rain 52 11.1 42 5.6 69 69 Calm 30.04 1017 9 14 0.01 0.25
3:53 pm 15:53 Cloudy 56 13.3 46 7.8 70 70 SE 8 13 30.00 1016 10 16 0.00 0.03
4:53 pm 16:53 Mostly Sunny 61 16.1 44 6.7 54 54 Calm 29.97 1015 10 16 0.00 0.00
5:53 pm 17:53 Sunny 65 18.3 44 6.7 47 47 ENE 5 7 29.95 1014 10 16 0.00 0.00
6:53 pm 18:53 Mostly Sunny 65 18.3 43 6.1 45 45 N 7 11 29.95 1014 10 16 0.00 0.00
7:53 pm 19:53 Mostly Cloudy 63 17.2 44 6.7 50 50 NE 3 6 29.98 1015 10 16 0.00 0.00
8:53 pm 20:53 Partly Cloudy 61 16.1 50 10 67 67 Calm 29.99 1016 10 16 0.00 0.00
9:53 pm 21:53 Clear 58 14.4 49 9.4 72 72 ENE 6 9 29.98 1015 10 16 0.00 0.00
10:53 pm 22:53 Clear 57 13.9 50 10 78 78 E 3 6 29.98 1015 10 16 0.00 0.00
11:53 pm 23:53 Clear 55 12.8 50 10 83 83 Calm 29.98 1015 10 16 0.00 0.00

Powered by AerisWeather